Flag for U.S.A. Weather past 2 weeks in Memphis, Tennessee, U.S.A.

77 °F

Mostly cloudy.

Feels Like: 79 °F
Forecast: 61 / 84 °F
Wind: 16 mph from North

Location: Memphis International Airport

Current Time: Oct 9, 2015 at 5:38:40 PM

Latest Report: Oct 9, 2015 at 3:54 PM

Visibility: 10 mi

Pressure: 30.06 "Hg

Humidity: 56%

Dew point: 60 °F

Location of MemphisLocation

Historic Weather in Memphis — Graph


Memphis temperature yesterday

Maximum temperature yesterday: 89 °F (at 1:54 PM)
Minimum temperature yesterday: 66 °F (at 4:54 AM)
Average temperature yesterday: 76 °F

Past Weeks' High & Low Weather Summary

High90 °F (Sep 24, 3:54 PM)93% (Sep 28, 5:54 AM)30.11 "Hg (Sep 28, 5:54 AM)
Low53 °F (Oct 4, 7:54 AM)25% (Sep 24, 4:54 PM)29.84 "Hg (Sep 29, 3:54 PM)
Average71 °F68%29.99 "Hg
* Reported Sep 24 3:54 PM — Oct 9 3:54 PM, Memphis, Weather by CustomWeather, © 2015

Note: Actual official high and low records may vary slightly from our data, if they occured in-between our weather recording intervals... More about our weather records


Memphis weather history for previous 24 hours

Time TempWeatherWind HumidityBarometerVisibility
3:54 PM
Fri, Oct 9
77 °FMostly cloudy.16 mph56%30.06 "Hg10 mi
2:54 PM81 °FMore clouds than sun.14 mph49%30.04 "Hg10 mi
1:54 PM83 °FCloudy.12 mph48%30.05 "Hg10 mi
12:54 PM86 °FBroken clouds.13 mph48%30.06 "Hg10 mi
11:54 AM83 °FPartly sunny.7 mph48%30.07 "Hg10 mi
10:54 AM83 °FScattered clouds.8 mph50%30.09 "Hg10 mi
9:54 AM79 °FScattered clouds.6 mph58%30.09 "Hg10 mi
8:54 AM72 °FPartly sunny.No wind84%30.09 "Hg10 mi
7:54 AM70 °FPartly sunny.No wind87%30.08 "Hg10 mi
6:54 AM69 °FPassing clouds.No wind87%30.07 "Hg9 mi
5:54 AM69 °FPassing clouds.No wind87%30.06 "Hg10 mi
4:54 AM69 °FPassing clouds.No wind87%30.04 "Hg10 mi
3:54 AM68 °FPassing clouds.No wind87%30.03 "Hg10 mi
2:54 AM70 °FPassing clouds.No wind81%30.03 "Hg10 mi
1:54 AM70 °FPassing clouds.3 mph76%30.03 "Hg10 mi
12:54 AM68 °FPassing clouds.7 mph76%30.03 "Hg10 mi
11:54 PM
Thu, Oct 8
69 °FPassing clouds.No wind73%30.04 "Hg10 mi
10:54 PM71 °FPassing clouds.3 mph71%30.05 "Hg10 mi
9:54 PM72 °FPassing clouds.No wind66%30.05 "Hg10 mi
8:54 PM73 °FPassing clouds.3 mph64%30.04 "Hg10 mi
7:54 PM77 °FPassing clouds.No wind54%30.03 "Hg10 mi
6:54 PM80 °FPassing clouds.5 mph47%30.01 "Hg8 mi
5:54 PM84 °FPartly sunny.6 mph41%30.00 "Hg9 mi
Weather by CustomWeather, © 2015

See weather overviewHow to use our weather pages